User: anonymous   Login
Location: *
(2.5500°S, 65.9667°W)
Time: 22:50:05
(UTC+00:00)
Language:

Delta 168 - Orbit

View from above orbital plane
View from above orbital plane
View from above satellite
View from above satellite

Ground track
Ground track

The orbit data is extracted from the following two-line orbital elements,

1 14051U 83041B   22017.29792772  .00002832  00000-0  25305-3 0  9997
2 14051  25.3333 245.0213 1083552 341.3966  14.9693 13.11554551798259
Epoch (UTC): 17 January 2022 07:09:00
Eccentricity: 0.1083552
inclination: 25.3333°
perigee height: 394 km
apogee height: 2040 km
right ascension of ascending node: 245.0213°
argument of perigee: 341.3966°
revolutions per day: 13.11554551
mean anomaly at epoch: 14.9693°
orbit number at epoch: 79825

The dashed part of the orbit path shows where the satellite is in the earth's shadow,  

DLR